Time,TemperatureF,DewpointF,PressureIn,WindDirection,WindDirectionDegrees,WindSpeedMPH,WindSpeedGustMPH,Humidity,HourlyPrecipIn,Conditions,Clouds,dailyrainin,SoftwareType,DateUTC
2013-03-17 00:00:00,40.1,-99.9,29.95,SW,215,3.7,10.4,-999,0.00,,,0.03,homebrew,2013-03-17 07:00:00,
2013-03-17 00:10:00,40.1,-99.9,29.96,SW,215,2.9,9.4,-999,0.00,,,0.03,homebrew,2013-03-17 07:10:00,
2013-03-17 00:15:00,40.1,-99.9,29.96,SW,221,4.2,7.1,-999,0.00,,,0.03,homebrew,2013-03-17 07:15:00,
2013-03-17 00:25:00,40.2,-99.9,29.96,SSW,197,2.2,7.3,-999,0.00,,,0.03,homebrew,2013-03-17 07:25:00,
2013-03-17 00:30:00,40.2,-99.9,29.96,SSW,209,2.2,5.7,-999,0.00,,,0.03,homebrew,2013-03-17 07:30:00,
2013-03-17 00:35:00,40.2,-99.9,29.96,SSW,200,1.6,7.6,-999,0.00,,,0.03,homebrew,2013-03-17 07:35:00,
2013-03-17 00:40:00,40.2,-99.9,29.96,SW,215,3.0,4.8,-999,0.00,,,0.03,homebrew,2013-03-17 07:40:00,
2013-03-17 00:45:00,40.1,-99.9,29.96,SSW,199,3.4,9.9,-999,0.00,,,0.00,homebrew,2013-03-17 07:45:00,
2013-03-17 00:55:00,40.1,-99.9,29.96,SSW,194,2.6,7.0,-999,0.00,,,0.00,homebrew,2013-03-17 07:55:00,
2013-03-17 01:00:00,40.0,-99.9,29.96,SSW,207,2.9,10.3,-999,0.00,,,0.00,homebrew,2013-03-17 08:00:00,
2013-03-17 01:05:00,39.9,-99.9,29.96,SSW,198,2.0,7.0,-999,0.00,,,0.00,homebrew,2013-03-17 08:05:00,
2013-03-17 01:15:00,40.0,-99.9,29.97,SSW,206,1.7,8.1,-999,0.00,,,0.00,homebrew,2013-03-17 08:15:00,
2013-03-17 01:20:00,40.0,-99.9,29.98,SSW,206,2.4,6.4,-999,0.00,,,0.00,homebrew,2013-03-17 08:20:00,
2013-03-17 01:25:00,40.0,-99.9,29.98,SSW,204,3.1,8.8,-999,0.00,,,0.00,homebrew,2013-03-17 08:25:00,
2013-03-17 01:30:00,40.0,-99.9,29.98,SSW,204,3.3,10.7,-999,0.00,,,0.00,homebrew,2013-03-17 08:30:00,
2013-03-17 01:35:00,40.0,-99.9,29.99,SW,221,4.5,12.8,-999,0.00,,,0.00,homebrew,2013-03-17 08:35:00,
2013-03-17 01:40:00,40.0,-99.9,29.99,SSW,195,2.1,9.8,-999,0.00,,,0.00,homebrew,2013-03-17 08:40:00,
2013-03-17 01:50:00,39.9,-99.9,29.99,SSW,192,1.7,3.8,-999,0.00,,,0.00,homebrew,2013-03-17 08:50:00,
2013-03-17 01:55:00,39.9,-99.9,29.99,SSW,196,2.1,4.8,-999,0.00,,,0.00,homebrew,2013-03-17 08:55:00,
2013-03-17 02:05:00,39.7,-99.9,29.99,SSW,206,3.0,9.1,-999,0.00,,,0.00,homebrew,2013-03-17 09:05:00,
2013-03-17 02:10:00,39.5,-99.9,29.99,SSW,204,3.3,9.9,-999,0.00,,,0.00,homebrew,2013-03-17 09:10:00,
2013-03-17 02:20:00,39.2,-99.9,29.99,South,177,1.3,3.4,-999,0.00,,,0.00,homebrew,2013-03-17 09:20:00,
2013-03-17 02:25:00,39.1,-99.9,30.00,SSW,201,2.6,5.9,-999,0.00,,,0.00,homebrew,2013-03-17 09:25:00,
2013-03-17 02:30:00,39.0,-99.9,30.00,SSW,200,2.3,5.9,-999,0.00,,,0.00,homebrew,2013-03-17 09:30:00,
2013-03-17 02:40:00,38.9,-99.9,30.00,SSW,194,1.6,6.8,-999,0.00,,,0.00,homebrew,2013-03-17 09:40:00,
2013-03-17 02:45:00,38.8,-99.9,30.00,SSW,196,1.2,5.0,-999,0.00,,,0.00,homebrew,2013-03-17 09:45:00,
2013-03-17 02:55:00,38.7,-99.9,30.01,SSW,206,3.0,7.2,-999,0.00,,,0.00,homebrew,2013-03-17 09:55:00,
2013-03-17 03:00:00,38.7,-99.9,30.01,SSE,162,1.0,6.6,-999,0.00,,,0.00,homebrew,2013-03-17 10:00:00,
2013-03-17 03:05:00,38.7,-99.9,30.01,SSW,199,1.5,5.3,-999,0.00,,,0.00,homebrew,2013-03-17 10:05:00,
2013-03-17 03:10:00,38.6,-99.9,30.01,SSW,202,1.3,5.5,-999,0.00,,,0.00,homebrew,2013-03-17 10:10:00,
2013-03-17 03:15:00,38.6,-99.9,30.01,SSW,198,2.2,4.0,-999,0.00,,,0.00,homebrew,2013-03-17 10:15:00,
2013-03-17 03:20:00,38.6,-99.9,30.01,South,182,1.3,5.3,-999,0.00,,,0.00,homebrew,2013-03-17 10:20:00,
2013-03-17 03:30:00,38.6,-99.9,30.02,South,173,0.3,2.9,-999,0.00,,,0.00,homebrew,2013-03-17 10:30:00,
2013-03-17 03:35:00,38.7,-99.9,30.02,SSW,194,1.4,4.4,-999,0.00,,,0.00,homebrew,2013-03-17 10:35:00,
2013-03-17 03:45:00,38.8,-99.9,30.02,SSE,161,0.0,0.0,-999,0.00,,,0.00,homebrew,2013-03-17 10:45:00,
2013-03-17 03:50:00,38.9,-99.9,30.03,SSE,161,0.0,0.0,-999,0.00,,,0.00,homebrew,2013-03-17 10:50:00,
2013-03-17 03:55:00,39.1,-99.9,30.03,South,170,0.3,0.0,-999,0.00,,,0.00,homebrew,2013-03-17 10:55:00,
2013-03-17 04:00:00,39.2,-99.9,30.03,SSE,161,1.4,3.2,-999,0.00,,,0.00,homebrew,2013-03-17 11:00:00,
2013-03-17 04:05:00,39.3,-99.9,30.04,SSE,154,0.0,5.8,-999,0.00,,,0.00,homebrew,2013-03-17 11:05:00,
2013-03-17 04:10:00,39.5,-99.9,30.03,SSE,155,0.2,0.0,-999,0.00,,,0.00,homebrew,2013-03-17 11:10:00,
2013-03-17 04:15:00,39.5,-99.9,30.03,South,170,1.1,3.7,-999,0.00,,,0.00,homebrew,2013-03-17 11:15:00,
2013-03-17 04:20:00,39.6,-99.9,30.04,South,172,1.8,4.5,-999,0.00,,,0.00,homebrew,2013-03-17 11:20:00,
2013-03-17 04:25:00,39.6,-99.9,30.04,South,180,0.5,7.3,-999,0.00,,,0.00,homebrew,2013-03-17 11:25:00,
2013-03-17 04:35:00,39.6,-99.9,30.04,South,175,3.4,5.2,-999,0.00,,,0.00,homebrew,2013-03-17 11:35:00,
2013-03-17 04:45:00,39.7,-99.9,30.04,South,176,1.2,7.5,-999,0.00,,,0.00,homebrew,2013-03-17 11:45:00,
2013-03-17 04:50:00,39.7,-99.9,30.04,South,185,1.6,4.5,-999,0.00,,,0.00,homebrew,2013-03-17 11:50:00,
2013-03-17 04:55:00,39.7,-99.9,30.05,SSW,196,2.3,8.7,-999,0.00,,,0.00,homebrew,2013-03-17 11:55:00,
2013-03-17 05:00:00,39.7,-99.9,30.05,South,173,2.0,6.5,-999,0.00,,,0.00,homebrew,2013-03-17 12:00:00,
2013-03-17 05:05:00,39.6,-99.9,30.05,SSE,163,0.8,8.0,-999,0.00,,,0.00,homebrew,2013-03-17 12:05:00,
2013-03-17 05:10:00,39.5,-99.9,30.05,SSW,206,2.5,7.1,-999,0.00,,,0.00,homebrew,2013-03-17 12:10:00,
2013-03-17 05:15:00,39.4,-99.9,30.05,SSW,198,0.9,6.5,-999,0.00,,,0.00,homebrew,2013-03-17 12:15:00,
2013-03-17 05:25:00,39.5,-99.9,30.06,SSW,207,2.0,3.9,-999,0.00,,,0.00,homebrew,2013-03-17 12:25:00,
2013-03-17 05:30:00,39.5,-99.9,30.06,South,183,0.7,5.8,-999,0.00,,,0.00,homebrew,2013-03-17 12:30:00,
2013-03-17 05:40:00,39.6,-99.9,30.06,South,178,1.0,3.7,-999,0.00,,,0.00,homebrew,2013-03-17 12:40:00,
2013-03-17 05:45:00,39.6,-99.9,30.06,South,175,2.0,4.8,-999,0.00,,,0.00,homebrew,2013-03-17 12:45:00,
2013-03-17 05:50:00,39.6,-99.9,30.06,SSW,192,1.9,7.9,-999,0.00,,,0.00,homebrew,2013-03-17 12:50:00,
2013-03-17 05:55:00,39.6,-99.9,30.06,SSW,201,1.9,6.9,-999,0.00,,,0.00,homebrew,2013-03-17 12:55:00,
2013-03-17 06:00:00,39.6,-99.9,30.07,SSW,209,2.8,6.8,-999,0.00,,,0.00,homebrew,2013-03-17 13:00:00,
2013-03-17 06:05:00,39.7,-99.9,30.07,SSW,193,2.4,10.6,-999,0.00,,,0.00,homebrew,2013-03-17 13:05:00,
2013-03-17 06:10:00,39.8,-99.9,30.07,South,169,1.4,7.7,-999,0.00,,,0.00,homebrew,2013-03-17 13:10:00,
2013-03-17 06:15:00,39.8,-99.9,30.08,South,171,0.5,5.1,-999,0.00,,,0.00,homebrew,2013-03-17 13:15:00,
2013-03-17 06:20:00,39.8,-99.9,30.08,SSE,160,0.6,3.7,-999,0.00,,,0.00,homebrew,2013-03-17 13:20:00,
2013-03-17 06:30:00,39.8,-99.9,30.08,SSW,192,1.2,5.6,-999,0.00,,,0.00,homebrew,2013-03-17 13:30:00,
2013-03-17 06:35:00,39.8,-99.9,30.09,SW,216,3.0,10.6,-999,0.00,,,0.00,homebrew,2013-03-17 13:35:00,
2013-03-17 06:45:00,39.8,-99.9,30.09,South,179,1.4,7.2,-999,0.00,,,0.00,homebrew,2013-03-17 13:45:00,
2013-03-17 06:50:00,39.8,-99.9,30.09,South,183,2.7,8.0,-999,0.00,,,0.00,homebrew,2013-03-17 13:50:00,
2013-03-17 06:55:00,39.8,-99.9,30.09,SSW,205,2.3,6.3,-999,0.00,,,0.00,homebrew,2013-03-17 13:55:00,
2013-03-17 07:00:00,39.7,-99.9,30.09,SW,220,4.3,8.0,-999,0.00,,,0.00,homebrew,2013-03-17 14:00:00,
2013-03-17 07:05:00,39.6,-99.9,30.09,SSW,212,3.0,11.2,-999,0.00,,,0.00,homebrew,2013-03-17 14:05:00,
2013-03-17 07:10:00,39.5,-99.9,30.10,SSW,211,4.1,11.0,-999,0.00,,,0.00,homebrew,2013-03-17 14:10:00,
2013-03-17 07:20:00,39.4,-99.9,30.10,SW,219,3.3,10.0,-999,0.00,,,0.00,homebrew,2013-03-17 14:20:00,
2013-03-17 07:25:00,39.3,-99.9,30.10,SSW,213,2.5,9.6,-999,0.00,,,0.00,homebrew,2013-03-17 14:25:00,
2013-03-17 07:35:00,39.4,-99.9,30.10,South,189,1.6,4.7,-999,0.00,,,0.00,homebrew,2013-03-17 14:35:00,
2013-03-17 07:40:00,39.5,-99.9,30.11,SSW,204,1.7,8.3,-999,0.00,,,0.00,homebrew,2013-03-17 14:40:00,
2013-03-17 07:45:00,39.6,-99.9,30.11,South,188,0.9,6.1,-999,0.00,,,0.00,homebrew,2013-03-17 14:45:00,
2013-03-17 07:50:00,39.6,-99.9,30.11,West,270,0.4,4.5,-999,0.00,,,0.00,homebrew,2013-03-17 14:50:00,
2013-03-17 07:55:00,39.6,-99.9,30.11,SSW,203,2.3,2.5,-999,0.00,,,0.00,homebrew,2013-03-17 14:55:00,
2013-03-17 08:00:00,39.5,-99.9,30.11,SW,228,0.9,7.3,-999,0.00,,,0.00,homebrew,2013-03-17 15:00:00,
2013-03-17 08:10:00,39.6,-99.9,30.12,SSW,201,2.1,9.6,-999,0.00,,,0.00,homebrew,2013-03-17 15:10:00,
2013-03-17 08:15:00,39.6,-99.9,30.12,South,183,2.4,6.2,-999,0.00,,,0.00,homebrew,2013-03-17 15:15:00,
2013-03-17 08:25:00,39.6,-99.9,30.12,SSW,194,2.7,6.8,-999,0.00,,,0.00,homebrew,2013-03-17 15:25:00,
2013-03-17 08:30:00,39.6,-99.9,30.12,SSW,202,3.0,7.3,-999,0.00,,,0.00,homebrew,2013-03-17 15:30:00,
2013-03-17 08:40:00,39.6,-99.9,30.13,SSW,206,2.7,6.1,-999,0.00,,,0.00,homebrew,2013-03-17 15:40:00,
2013-03-17 08:45:00,39.6,-99.9,30.13,SSW,197,2.5,6.0,-999,0.00,,,0.00,homebrew,2013-03-17 15:45:00,
2013-03-17 08:50:00,39.7,-99.9,30.13,SSW,199,3.1,8.9,-999,0.00,,,0.00,homebrew,2013-03-17 15:50:00,
2013-03-17 08:55:00,39.9,-99.9,30.13,SSW,194,2.9,7.1,-999,0.00,,,0.00,homebrew,2013-03-17 15:55:00,
2013-03-17 09:00:00,39.9,-99.9,30.13,SSW,196,3.0,7.5,-999,0.00,,,0.00,homebrew,2013-03-17 16:00:00,
2013-03-17 09:05:00,39.9,-99.9,30.13,SSW,201,3.8,8.9,-999,0.00,,,0.00,homebrew,2013-03-17 16:05:00,
2013-03-17 09:15:00,40.2,-99.9,30.13,SSW,207,3.3,9.6,-999,0.00,,,0.00,homebrew,2013-03-17 16:15:00,
2013-03-17 09:20:00,40.3,-99.9,30.13,SSW,205,3.7,9.8,-999,0.00,,,0.00,homebrew,2013-03-17 16:20:00,
2013-03-17 09:30:00,40.9,-99.9,30.14,South,181,1.9,8.5,-999,0.00,,,0.00,homebrew,2013-03-17 16:30:00,
2013-03-17 09:35:00,41.0,-99.9,30.14,SSW,198,3.6,9.1,-999,0.00,,,0.00,homebrew,2013-03-17 16:35:00,
2013-03-17 09:40:00,40.7,-99.9,30.14,South,189,4.1,11.5,-999,0.00,,,0.00,homebrew,2013-03-17 16:40:00,
2013-03-17 09:45:00,40.6,-99.9,30.14,SSW,194,3.4,9.7,-999,0.00,,,0.00,homebrew,2013-03-17 16:45:00,
2013-03-17 09:50:00,41.1,-99.9,30.14,South,187,2.1,8.2,-999,0.00,,,0.00,homebrew,2013-03-17 16:50:00,
2013-03-17 09:55:00,42.4,-99.9,30.14,SSW,192,2.8,8.3,-999,0.00,,,0.00,homebrew,2013-03-17 16:55:00,
2013-03-17 10:05:00,42.5,-99.9,30.14,SSW,192,3.1,11.9,-999,0.00,,,0.00,homebrew,2013-03-17 17:05:00,
2013-03-17 10:10:00,42.6,-99.9,30.14,South,183,2.5,10.1,-999,0.00,,,0.00,homebrew,2013-03-17 17:10:00,
2013-03-17 10:20:00,43.6,-99.9,30.14,SSW,198,2.3,8.1,-999,0.00,,,0.00,homebrew,2013-03-17 17:20:00,
2013-03-17 10:25:00,44.2,-99.9,30.14,SW,216,4.0,10.9,-999,0.00,,,0.00,homebrew,2013-03-17 17:25:00,
2013-03-17 10:30:00,43.7,-99.9,30.14,South,191,2.5,11.9,-999,0.00,,,0.00,homebrew,2013-03-17 17:30:00,
2013-03-17 10:35:00,43.9,-99.9,30.15,South,189,4.5,17.8,-999,0.00,,,0.00,homebrew,2013-03-17 17:35:00,
2013-03-17 10:40:00,43.5,-99.9,30.15,SSW,205,3.9,10.6,-999,0.00,,,0.00,homebrew,2013-03-17 17:40:00,
2013-03-17 10:45:00,43.6,-99.9,30.15,SSW,205,4.2,11.0,-999,0.00,,,0.00,homebrew,2013-03-17 17:45:00,
2013-03-17 10:55:00,43.7,-99.9,30.15,SSW,207,4.3,8.7,-999,0.00,,,0.00,homebrew,2013-03-17 17:55:00,
2013-03-17 11:00:00,43.6,-99.9,30.16,SSW,200,3.4,16.0,-999,0.00,,,0.00,homebrew,2013-03-17 18:00:00,
2013-03-17 11:10:00,43.7,-99.9,30.15,SW,215,5.2,14.4,-999,0.00,,,0.00,homebrew,2013-03-17 18:10:00,
2013-03-17 11:15:00,44.0,-99.9,30.16,SSW,203,5.6,18.5,-999,0.00,,,0.00,homebrew,2013-03-17 18:15:00,
2013-03-17 11:20:00,44.3,-99.9,30.16,SSW,207,4.1,16.1,-999,0.00,,,0.00,homebrew,2013-03-17 18:20:00,
2013-03-17 11:25:00,43.9,-99.9,30.16,SSW,204,5.0,11.9,-999,0.00,,,0.00,homebrew,2013-03-17 18:25:00,
2013-03-17 11:30:00,44.6,-99.9,30.15,SSW,195,2.8,15.8,-999,0.00,,,0.00,homebrew,2013-03-17 18:30:00,
2013-03-17 11:35:00,44.9,-99.9,30.15,SSW,211,4.5,10.5,-999,0.00,,,0.00,homebrew,2013-03-17 18:35:00,
2013-03-17 11:45:00,45.0,-99.9,30.15,SW,214,4.4,15.7,-999,0.00,,,0.00,homebrew,2013-03-17 18:45:00,
2013-03-17 11:50:00,46.1,-99.9,30.15,SSW,195,3.2,12.2,-999,0.00,,,0.00,homebrew,2013-03-17 18:50:00,
2013-03-17 12:00:00,46.1,-99.9,30.15,SSW,210,4.7,12.2,-999,0.00,,,0.00,homebrew,2013-03-17 19:00:00,
2013-03-17 12:05:00,45.0,-99.9,30.15,SW,219,4.9,14.5,-999,0.00,,,0.00,homebrew,2013-03-17 19:05:00,
2013-03-17 12:15:00,47.8,-99.9,30.15,SSW,196,3.0,13.4,-999,0.00,,,0.00,homebrew,2013-03-17 19:15:00,
2013-03-17 12:20:00,46.3,-99.9,30.15,SSW,211,4.5,9.9,-999,0.00,,,0.00,homebrew,2013-03-17 19:20:00,
2013-03-17 12:25:00,46.6,-99.9,30.15,SSW,200,3.2,11.6,-999,0.00,,,0.00,homebrew,2013-03-17 19:25:00,
2013-03-17 12:35:00,46.2,-99.9,30.15,SSW,208,5.7,16.0,-999,0.00,,,0.00,homebrew,2013-03-17 19:35:00,
2013-03-17 12:40:00,46.4,-99.9,30.14,SSW,205,4.1,15.2,-999,0.00,,,0.00,homebrew,2013-03-17 19:40:00,
2013-03-17 12:50:00,47.4,-99.9,30.15,SSW,205,4.6,12.2,-999,0.00,,,0.00,homebrew,2013-03-17 19:50:00,
2013-03-17 12:55:00,48.3,-99.9,30.15,SSW,200,4.7,9.6,-999,0.00,,,0.00,homebrew,2013-03-17 19:55:00,
2013-03-17 13:05:00,49.5,-99.9,30.14,SSW,197,5.3,14.0,-999,0.00,,,0.00,homebrew,2013-03-17 20:05:00,
2013-03-17 13:10:00,49.7,-99.9,30.15,SSW,201,4.4,13.3,-999,0.00,,,0.00,homebrew,2013-03-17 20:10:00,
2013-03-17 13:15:00,49.2,-99.9,30.14,SSW,199,4.9,14.4,-999,0.00,,,0.00,homebrew,2013-03-17 20:15:00,
2013-03-17 13:25:00,48.9,-99.9,30.14,SSW,207,6.4,10.9,-999,0.00,,,0.00,homebrew,2013-03-17 20:25:00,
2013-03-17 13:30:00,49.1,-99.9,30.14,SSW,196,4.6,16.7,-999,0.00,,,0.00,homebrew,2013-03-17 20:30:00,
2013-03-17 13:40:00,48.0,-99.9,30.14,SSW,205,5.9,18.3,-999,0.00,,,0.00,homebrew,2013-03-17 20:40:00,
2013-03-17 13:45:00,47.3,-99.9,30.14,SSW,209,5.2,17.4,-999,0.00,,,0.00,homebrew,2013-03-17 20:45:00,
2013-03-17 13:50:00,46.9,-99.9,30.14,SSW,203,4.5,16.9,-999,0.00,,,0.00,homebrew,2013-03-17 20:50:00,
2013-03-17 13:55:00,46.5,-99.9,30.14,SSW,207,5.2,10.3,-999,0.00,,,0.00,homebrew,2013-03-17 20:55:00,
2013-03-17 14:00:00,46.4,-99.9,30.14,SSW,203,4.4,16.2,-999,0.00,,,0.00,homebrew,2013-03-17 21:00:00,
2013-03-17 14:05:00,48.0,-99.9,30.14,SSW,212,4.4,13.6,-999,0.00,,,0.00,homebrew,2013-03-17 21:05:00,
2013-03-17 14:15:00,49.2,-99.9,30.14,SSW,208,6.0,14.1,-999,0.00,,,0.00,homebrew,2013-03-17 21:15:00,
2013-03-17 14:20:00,48.7,-99.9,30.13,SSW,201,4.9,11.3,-999,0.00,,,0.00,homebrew,2013-03-17 21:20:00,
2013-03-17 14:30:00,49.2,-99.9,30.13,SSW,194,4.6,10.1,-999,0.00,,,0.00,homebrew,2013-03-17 21:30:00,
2013-03-17 14:35:00,49.4,-99.9,30.13,SSW,201,5.1,10.3,-999,0.00,,,0.00,homebrew,2013-03-17 21:35:00,
2013-03-17 14:40:00,48.2,-99.9,30.13,SSW,211,6.8,14.4,-999,0.00,,,0.00,homebrew,2013-03-17 21:40:00,
2013-03-17 14:50:00,49.7,-99.9,30.13,SSW,207,5.1,9.6,-999,0.00,,,0.00,homebrew,2013-03-17 21:50:00,
2013-03-17 14:55:00,49.2,-99.9,30.13,SSW,211,4.7,16.3,-999,0.00,,,0.00,homebrew,2013-03-17 21:55:00,
2013-03-17 15:05:00,47.9,-99.9,30.14,SSW,209,5.2,8.6,-999,0.00,,,0.00,homebrew,2013-03-17 22:05:00,
2013-03-17 15:10:00,47.8,-99.9,30.13,SSW,199,4.7,14.2,-999,0.00,,,0.00,homebrew,2013-03-17 22:10:00,
2013-03-17 15:20:00,47.2,-99.9,30.13,SSW,198,3.7,15.9,-999,0.00,,,0.00,homebrew,2013-03-17 22:20:00,
2013-03-17 15:25:00,47.9,-99.9,30.13,SSW,196,4.0,8.7,-999,0.00,,,0.00,homebrew,2013-03-17 22:25:00,
2013-03-17 15:30:00,49.1,-99.9,30.13,SSW,206,4.1,12.9,-999,0.00,,,0.00,homebrew,2013-03-17 22:30:00,
2013-03-17 15:40:00,47.9,-99.9,30.13,SSW,209,3.9,12.7,-999,0.00,,,0.00,homebrew,2013-03-17 22:40:00,
2013-03-17 15:45:00,48.4,-99.9,30.13,SSW,202,3.3,9.4,-999,0.00,,,0.00,homebrew,2013-03-17 22:45:00,
2013-03-17 15:55:00,48.7,-99.9,30.13,SSW,195,3.7,9.8,-999,0.00,,,0.00,homebrew,2013-03-17 22:55:00,
2013-03-17 16:00:00,47.6,-99.9,30.13,SW,218,6.1,12.2,-999,0.00,,,0.00,homebrew,2013-03-17 23:00:00,
2013-03-17 16:05:00,46.6,-99.9,30.13,SSW,212,4.9,15.5,-999,0.00,,,0.00,homebrew,2013-03-17 23:05:00,
2013-03-17 16:10:00,46.4,-99.9,30.13,SSW,207,3.5,14.4,-999,0.00,,,0.00,homebrew,2013-03-17 23:10:00,
2013-03-17 16:15:00,46.5,-99.9,30.14,SSW,206,4.2,9.6,-999,0.00,,,0.00,homebrew,2013-03-17 23:15:00,
2013-03-17 16:20:00,46.0,-99.9,30.13,SSW,204,3.7,8.8,-999,0.00,,,0.00,homebrew,2013-03-17 23:20:00,
2013-03-17 16:30:00,45.6,-99.9,30.14,SSW,203,3.5,10.9,-999,0.00,,,0.00,homebrew,2013-03-17 23:30:00,
2013-03-17 16:35:00,45.6,-99.9,30.13,SSW,204,3.0,9.6,-999,0.00,,,0.00,homebrew,2013-03-17 23:35:00,
2013-03-17 16:45:00,45.4,-99.9,30.14,SW,216,5.2,8.1,-999,0.00,,,0.00,homebrew,2013-03-17 23:45:00,
2013-03-17 16:50:00,45.3,-99.9,30.14,SSW,195,2.3,19.0,-999,0.00,,,0.00,homebrew,2013-03-17 23:50:00,
2013-03-17 16:55:00,45.3,-99.9,30.14,SSW,210,5.1,10.8,-999,0.00,,,0.00,homebrew,2013-03-17 23:55:00,
2013-03-17 17:00:00,45.0,-99.9,30.14,SSW,205,3.8,16.8,-999,0.00,,,0.00,homebrew,2013-03-18 00:00:00,
2013-03-17 17:05:00,45.0,-99.9,30.14,SSW,205,4.7,9.9,-999,0.00,,,0.00,homebrew,2013-03-18 00:05:00,
2013-03-17 17:15:00,44.8,-99.9,30.14,SSW,208,3.3,8.6,-999,0.00,,,0.00,homebrew,2013-03-18 00:15:00,
2013-03-17 17:20:00,44.9,-99.9,30.14,SSW,201,3.1,7.5,-999,0.00,,,0.00,homebrew,2013-03-18 00:20:00,
2013-03-17 17:25:00,44.8,-99.9,30.14,SSW,205,4.5,9.6,-999,0.00,,,0.00,homebrew,2013-03-18 00:25:00,
2013-03-17 17:35:00,44.8,-99.9,30.14,SSW,205,2.5,14.3,-999,0.00,,,0.00,homebrew,2013-03-18 00:35:00,
2013-03-17 17:40:00,44.8,-99.9,30.14,SSW,213,4.0,10.0,-999,0.00,,,0.00,homebrew,2013-03-18 00:40:00,
2013-03-17 17:45:00,44.7,-99.9,30.13,SSW,204,3.5,12.7,-999,0.00,,,0.00,homebrew,2013-03-18 00:45:00,
2013-03-17 17:50:00,44.6,-99.9,30.14,SW,215,6.8,18.0,-999,0.00,,,0.00,homebrew,2013-03-18 00:50:00,
2013-03-17 17:55:00,44.5,-99.9,30.13,SW,216,4.3,15.3,-999,0.00,,,0.00,homebrew,2013-03-18 00:55:00,
2013-03-17 18:00:00,44.3,-99.9,30.13,SSW,206,3.9,13.8,-999,0.00,,,0.00,homebrew,2013-03-18 01:00:00,
2013-03-17 18:10:00,43.9,-99.9,30.13,SSW,198,3.2,11.3,-999,0.00,,,0.00,homebrew,2013-03-18 01:10:00,
2013-03-17 18:15:00,43.7,-99.9,30.14,SSW,206,4.1,12.3,-999,0.00,,,0.00,homebrew,2013-03-18 01:15:00,
2013-03-17 18:25:00,43.5,-99.9,30.13,SSW,202,3.4,9.3,-999,0.00,,,0.00,homebrew,2013-03-18 01:25:00,
2013-03-17 18:30:00,43.4,-99.9,30.13,SSW,201,3.5,9.5,-999,0.00,,,0.00,homebrew,2013-03-18 01:30:00,
2013-03-17 18:35:00,43.3,-99.9,30.13,SSW,208,3.6,10.1,-999,0.00,,,0.00,homebrew,2013-03-18 01:35:00,
2013-03-17 18:40:00,43.3,-99.9,30.13,SSW,199,2.1,10.6,-999,0.00,,,0.00,homebrew,2013-03-18 01:40:00,
2013-03-17 18:45:00,43.3,-99.9,30.13,SSW,195,1.8,9.6,-999,0.00,,,0.00,homebrew,2013-03-18 01:45:00,
2013-03-17 18:50:00,43.2,-99.9,30.13,South,184,1.3,9.4,-999,0.00,,,0.00,homebrew,2013-03-18 01:50:00,
2013-03-17 19:00:00,42.9,-99.9,30.13,SSW,209,2.6,8.2,-999,0.00,,,0.00,homebrew,2013-03-18 02:00:00,
2013-03-17 19:05:00,42.9,-99.9,30.13,SSW,206,2.6,8.9,-999,0.00,,,0.00,homebrew,2013-03-18 02:05:00,
2013-03-17 19:15:00,42.7,-99.9,30.13,SSW,209,3.3,9.5,-999,0.00,,,0.00,homebrew,2013-03-18 02:15:00,
2013-03-17 19:20:00,42.5,-99.9,30.13,SSW,211,4.0,15.3,-999,0.00,,,0.00,homebrew,2013-03-18 02:20:00,
2013-03-17 19:25:00,42.5,-99.9,30.13,SSW,213,2.9,11.2,-999,0.00,,,0.00,homebrew,2013-03-18 02:25:00,
2013-03-17 19:30:00,42.3,-99.9,30.13,SSW,204,2.2,9.6,-999,0.00,,,0.00,homebrew,2013-03-18 02:30:00,
2013-03-17 19:35:00,42.2,-99.9,30.13,WSW,238,2.9,8.1,-999,0.00,,,0.00,homebrew,2013-03-18 02:35:00,
2013-03-17 19:40:00,42.2,-99.9,30.13,SSW,198,3.2,8.0,-999,0.00,,,0.00,homebrew,2013-03-18 02:40:00,
2013-03-17 19:50:00,41.9,-99.9,30.13,SSW,195,1.7,6.8,-999,0.00,,,0.00,homebrew,2013-03-18 02:50:00,
2013-03-17 19:55:00,41.8,-99.9,30.13,SSW,198,2.8,8.0,-999,0.00,,,0.00,homebrew,2013-03-18 02:55:00,
2013-03-17 20:05:00,41.7,-99.9,30.13,SSW,193,2.0,8.9,-999,0.00,,,0.00,homebrew,2013-03-18 03:05:00,
2013-03-17 20:10:00,41.7,-99.9,30.13,South,189,1.1,7.5,-999,0.00,,,0.00,homebrew,2013-03-18 03:10:00,
2013-03-17 20:20:00,41.7,-99.9,30.14,SSW,204,3.6,4.7,-999,0.00,,,0.00,homebrew,2013-03-18 03:20:00,
2013-03-17 20:25:00,41.7,-99.9,30.13,SSW,212,4.0,14.9,-999,0.00,,,0.00,homebrew,2013-03-18 03:25:00,
2013-03-17 20:30:00,41.6,-99.9,30.14,SW,228,4.3,17.2,-999,0.00,,,0.00,homebrew,2013-03-18 03:30:00,
2013-03-17 20:40:00,41.2,-99.9,30.14,SW,214,3.1,12.4,-999,0.00,,,0.00,homebrew,2013-03-18 03:40:00,
2013-03-17 20:45:00,41.1,-99.9,30.13,SSW,213,3.0,9.8,-999,0.00,,,0.00,homebrew,2013-03-18 03:45:00,
2013-03-17 20:55:00,41.1,-99.9,30.14,SSW,203,3.8,10.6,-999,0.00,,,0.00,homebrew,2013-03-18 03:55:00,
2013-03-17 21:00:00,41.1,-99.9,30.14,SSW,207,2.8,10.1,-999,0.00,,,0.00,homebrew,2013-03-18 04:00:00,
2013-03-17 21:05:00,41.0,-99.9,30.14,SSW,203,3.4,9.6,-999,0.00,,,0.00,homebrew,2013-03-18 04:05:00,
2013-03-17 21:10:00,40.9,-99.9,30.14,SSW,207,3.5,7.1,-999,0.00,,,0.00,homebrew,2013-03-18 04:10:00,
2013-03-17 21:15:00,40.9,-99.9,30.14,SSW,211,3.6,9.8,-999,0.00,,,0.00,homebrew,2013-03-18 04:15:00,
2013-03-17 21:20:00,40.9,-99.9,30.14,SSW,203,2.3,15.3,-999,0.00,,,0.00,homebrew,2013-03-18 04:20:00,
2013-03-17 21:25:00,40.8,-99.9,30.14,SSW,199,3.2,9.8,-999,0.00,,,0.00,homebrew,2013-03-18 04:25:00,
2013-03-17 21:30:00,40.7,-99.9,30.14,SW,221,3.9,10.7,-999,0.00,,,0.00,homebrew,2013-03-18 04:30:00,
2013-03-17 21:35:00,40.6,-99.9,30.14,SSW,210,4.1,10.3,-999,0.00,,,0.00,homebrew,2013-03-18 04:35:00,
2013-03-17 21:45:00,40.6,-99.9,30.15,SW,214,4.1,8.1,-999,0.00,,,0.00,homebrew,2013-03-18 04:45:00,
2013-03-17 21:55:00,40.6,-99.9,30.14,SW,218,4.2,7.0,-999,0.00,,,0.00,homebrew,2013-03-18 04:55:00,
2013-03-17 22:00:00,40.4,-99.9,30.14,SSW,207,4.3,11.9,-999,0.00,,,0.00,homebrew,2013-03-18 05:00:00,
2013-03-17 22:05:00,40.3,-99.9,30.14,SSW,203,2.6,10.8,-999,0.00,,,0.00,homebrew,2013-03-18 05:05:00,
2013-03-17 22:10:00,40.3,-99.9,30.14,SW,214,5.7,8.6,-999,0.00,,,0.00,homebrew,2013-03-18 05:10:00,
2013-03-17 22:15:00,40.4,-99.9,30.15,SSW,211,4.0,14.5,-999,0.00,,,0.00,homebrew,2013-03-18 05:15:00,
2013-03-17 22:20:00,40.4,-99.9,30.15,SW,216,4.4,10.3,-999,0.00,,,0.00,homebrew,2013-03-18 05:20:00,
2013-03-17 22:25:00,40.5,-99.9,30.15,SW,216,4.3,11.4,-999,0.00,,,0.00,homebrew,2013-03-18 05:25:00,
2013-03-17 22:30:00,40.4,-99.9,30.15,SSW,211,4.7,11.5,-999,0.00,,,0.00,homebrew,2013-03-18 05:30:00,
2013-03-17 22:35:00,40.4,-99.9,30.15,SSW,200,2.3,14.0,-999,0.00,,,0.00,homebrew,2013-03-18 05:35:00,
2013-03-17 22:40:00,40.4,-99.9,30.15,SSW,196,2.5,8.6,-999,0.00,,,0.00,homebrew,2013-03-18 05:40:00,
2013-03-17 22:45:00,40.4,-99.9,30.15,SSW,203,4.4,9.8,-999,0.00,,,0.00,homebrew,2013-03-18 05:45:00,
2013-03-17 22:55:00,40.3,-99.9,30.15,SSW,202,3.0,12.4,-999,0.00,,,0.00,homebrew,2013-03-18 05:55:00,
2013-03-17 23:00:00,40.3,-99.9,30.15,SW,218,4.2,7.5,-999,0.00,,,0.00,homebrew,2013-03-18 06:00:00,
2013-03-17 23:05:00,40.3,-99.9,30.15,SSW,209,4.1,13.5,-999,0.00,,,0.00,homebrew,2013-03-18 06:05:00,
2013-03-17 23:10:00,40.2,-99.9,30.15,SW,216,4.5,13.3,-999,0.00,,,0.00,homebrew,2013-03-18 06:10:00,
2013-03-17 23:15:00,40.3,-99.9,30.15,SSW,212,4.1,10.8,-999,0.00,,,0.00,homebrew,2013-03-18 06:15:00,
2013-03-17 23:25:00,40.3,-99.9,30.15,SSW,197,2.9,9.8,-999,0.00,,,0.00,homebrew,2013-03-18 06:25:00,
2013-03-17 23:30:00,40.3,-99.9,30.15,SSW,201,3.1,10.5,-999,0.00,,,0.00,homebrew,2013-03-18 06:30:00,
2013-03-17 23:40:00,40.2,-99.9,30.15,SSW,201,2.2,7.9,-999,0.00,,,0.00,homebrew,2013-03-18 06:40:00,
2013-03-17 23:45:00,40.1,-99.9,30.14,SSW,193,2.6,6.5,-999,0.00,,,0.00,homebrew,2013-03-18 06:45:00,
2013-03-17 23:55:00,40.0,-99.9,30.14,SSW,205,2.5,6.4,-999,0.00,,,0.00,homebrew,2013-03-18 06:55:00,